Location: Brachbach
(49.1847°N, 9.7240°E)
Time: 07:54:47
(UTC+00:00)

FO-29 - Pass Details

Date: 21 March 2026
Orbit: 801 x 1320 km, 98.5° (Epoch: 17 April)

Event Time Altitude Azimuth Distance (km) Brightness Sun altitude
Rises 19:00:23 0° 18° (NNE) 4,200 12.8 -14.5°
Reaches altitude 10° 19:03:13 10° 25° (NNE) 3,277 12.2 -14.9°
Maximum altitude 19:10:29 43° 95° (E) 1,772 10.4 -16.0°
Drops below altitude 10° 19:17:51 10° 165° (SSE) 3,330 11.9 -17.1°
Sets 19:20:44 0° 172° (S) 4,275 12.6 -17.6°
